TimeCDT,TemperatureF,Dew PointF,Humidity,Sea Level PressureIn,VisibilityMPH,Wind Direction,Wind SpeedMPH,Gust SpeedMPH,PrecipitationIn,Events,Conditions,WindDirDegrees,DateUTC
12:53 AM,62.1,42.1,48,29.71,10.0,South,17.3,-,N/A,,Clear,180,2013-03-16 05:53:00
1:53 AM,62.1,42.1,48,29.69,10.0,South,19.6,-,N/A,,Clear,190,2013-03-16 06:53:00
2:53 AM,57.9,42.1,56,29.69,10.0,SSW,13.8,-,N/A,,Clear,210,2013-03-16 07:53:00
3:53 AM,57.0,42.1,57,29.68,10.0,SSW,13.8,-,N/A,,Clear,210,2013-03-16 08:53:00
4:53 AM,55.9,42.1,60,29.66,10.0,SSW,13.8,-,N/A,,Clear,200,2013-03-16 09:53:00
5:53 AM,52.0,43.0,71,29.67,10.0,SSW,12.7,-,N/A,,Clear,210,2013-03-16 10:53:00
6:53 AM,53.1,43.0,69,29.68,10.0,South,12.7,-,N/A,,Clear,190,2013-03-16 11:53:00
7:53 AM,51.1,43.0,74,29.68,10.0,SSW,11.5,-,N/A,,Clear,200,2013-03-16 12:53:00
8:53 AM,54.0,46.0,75,29.70,10.0,South,4.6,-,N/A,,Clear,180,2013-03-16 13:53:00
9:53 AM,62.1,46.9,58,29.70,10.0,South,8.1,-,N/A,,Clear,190,2013-03-16 14:53:00
10:53 AM,64.9,46.0,50,29.72,10.0,SW,5.8,-,N/A,,Clear,230,2013-03-16 15:53:00
11:53 AM,66.9,48.0,51,29.73,10.0,NE,11.5,-,N/A,,Clear,40,2013-03-16 16:53:00
12:53 PM,69.1,48.9,49,29.74,10.0,ENE,15.0,-,N/A,,Clear,70,2013-03-16 17:53:00
1:53 PM,68.0,48.9,50,29.73,10.0,NNE,16.1,-,N/A,,Clear,30,2013-03-16 18:53:00
2:53 PM,70.0,51.1,51,29.73,10.0,NNE,18.4,25.3,N/A,,Clear,30,2013-03-16 19:53:00
3:53 PM,69.1,50.0,51,29.70,10.0,NNE,18.4,28.8,N/A,,Clear,30,2013-03-16 20:53:00
4:53 PM,66.0,48.9,54,29.72,10.0,NNE,21.9,-,N/A,,Clear,30,2013-03-16 21:53:00
5:53 PM,64.9,48.0,54,29.73,10.0,NE,19.6,-,N/A,,Clear,40,2013-03-16 22:53:00
6:53 PM,62.1,45.0,53,29.75,10.0,NNE,17.3,27.6,N/A,,Clear,30,2013-03-16 23:53:00
7:53 PM,57.9,43.0,58,29.77,10.0,NNE,12.7,-,N/A,,Clear,30,2013-03-17 00:53:00
8:53 PM,55.0,41.0,59,29.79,10.0,NNE,21.9,27.6,N/A,,Clear,30,2013-03-17 01:53:00
9:53 PM,51.1,39.0,63,29.80,8.0,NNE,16.1,-,N/A,,Clear,30,2013-03-17 02:53:00
10:53 PM,50.0,37.9,63,29.81,9.0,NE,19.6,27.6,N/A,,Clear,40,2013-03-17 03:53:00
11:53 PM,46.9,35.1,63,29.83,10.0,NNE,19.6,29.9,N/A,,Clear,20,2013-03-17 04:53:00